Regional Weather Roundup
Issued by NWS

Home | Current Version | Previous Version | Text Only | Print | Product List | Glossary Off
Versions: 1 2 3 4 5 6 7 8 9 10 11 12 13 14 15 16 17 18 19 20 21 22 23 24 25 26 27 28 29 30 31 32 33 34 35 36 37 38 39 40 41 42 43 44 45 46 47 48 49 50

000
ASUS45 KCYS 301010
RWRWY

WYOMING REGIONAL WEATHER ROUNDUP
NATIONAL WEATHER SERVICE CHEYENNE WY
400 AM MDT THU JUL 30 2015

NOTE:  "FAIR" INDICATES FEW OR NO CLOUDS BELOW 12,000 FEET
WITH NO SIGNIFICANT WEATHER AND/OR OBSTRUCTIONS TO VISIBILITY.

WYZ001-301100-
YELLOWSTONE NATIONAL PARK

CITY           SKY/WX    TMP DP  RH WIND       PRES   REMARKS
LK YELLOWSTONE   N/A     36  33  89 CALM      30.54S
W YELLOWSTONE  NOT AVBL

$$
WYZ002>013-054>058-071-098>099-301100-
NORTHERN WYOMING

CITY           SKY/WX    TMP DP  RH WIND       PRES   REMARKS
JACKSON        FAIR      43  36  75 N8        30.45S
CODY           FAIR      61  36  39 SW7       30.34S
GREYBULL       FAIR      54  37  52 CALM      30.26S
WORLAND        FAIR      52  31  44 S7        30.28S
SHERIDAN       FAIR      51  40  65 SW5       30.28R
BUFFALO        FAIR      57  34  41 W8        30.34S
GILLETTE       FAIR      51  38  60 S5        30.29S
HULETT         FAIR      52  37  58 CALM      30.29S
NEWCASTLE      FAIR      54  37  54 N8        30.29S

$$
WYZ014>020-022>026-101>103-301100-
CENTRAL WYOMING

CITY           SKY/WX    TMP DP  RH WIND       PRES   REMARKS
BIG PINEY      FAIR      42  31  64 E5        30.46S
PINEDALE       FAIR      37  32  81 NW8       30.47S WCI  31
DUBOIS         FAIR      43  30  61 W16       30.46S
LANDER         FAIR      56  29  35 CALM      30.34S
RIVERTON       FAIR      57  33  40 NW13      30.35R
CASPER         FAIR      49  31  49 NW7       30.34R
DOUGLAS        FAIR      48  40  73 N6        30.32R

$$
WYZ021-027>030-104>119-301100-
SOUTHERN WYOMING

CITY           SKY/WX    TMP DP  RH WIND       PRES   REMARKS
EVANSTON       FAIR      52  25  35 SE6       30.46R
KEMMERER       FAIR      45  32  61 N10       30.48R
FORT BRIDGER   SUNNY     57  25  28 W6        30.48S
ROCK SPRINGS   FAIR      53  22  29 W9        30.42S
DIXON          FAIR      49  21  33 NE5       30.43S
RAWLINS        FAIR      42  16  34 CALM      30.41F
LARAMIE        FAIR      43  34  70 SE8       30.45R
CHEYENNE       FAIR      54  47  77 W5        30.35F
TORRINGTON     FAIR      61  48  62 E6        30.23F
PINE BLUFFS    FAIR      55  48  76 CALM      30.31S

$$



USA.gov is the U.S. government's official web portal to all federal, state and local government web resources and services.